Year,Month,Day,Hour,Minute,Value (Times are PST for temperature in C)
2016,04,09,00,01,9.90
2016,04,09,00,02,9.90
2016,04,09,00,03,9.90
2016,04,09,00,04,9.90
2016,04,09,00,06,9.90
2016,04,09,00,07,9.90
2016,04,09,00,09,9.90
2016,04,09,00,10,9.90
2016,04,09,00,12,9.90
2016,04,09,00,13,9.90
2016,04,09,00,14,9.90
2016,04,09,00,16,9.90
2016,04,09,00,17,9.80
2016,04,09,00,18,9.80
2016,04,09,00,19,9.80
2016,04,09,00,21,9.80
2016,04,09,00,22,9.80
2016,04,09,00,23,9.80
2016,04,09,00,24,9.70
2016,04,09,00,26,9.70
2016,04,09,00,27,9.70
2016,04,09,00,28,9.70
2016,04,09,00,29,9.70
2016,04,09,00,31,9.70
2016,04,09,00,32,9.70
2016,04,09,00,33,9.70
2016,04,09,00,34,9.70
2016,04,09,00,36,9.70
2016,04,09,00,37,9.70
2016,04,09,00,38,9.70
2016,04,09,00,39,9.60
2016,04,09,00,41,9.60
2016,04,09,00,42,9.60
2016,04,09,00,43,9.60
2016,04,09,00,44,9.60
2016,04,09,00,46,9.60
2016,04,09,00,47,9.60
2016,04,09,00,48,9.60
2016,04,09,00,49,9.60
2016,04,09,00,51,9.60
2016,04,09,00,52,9.60
2016,04,09,00,53,9.60
2016,04,09,00,54,9.60
2016,04,09,00,56,9.60
2016,04,09,00,57,9.60
2016,04,09,00,58,9.50
2016,04,09,00,59,9.50
2016,04,09,01,01,9.50
2016,04,09,01,02,9.50
2016,04,09,01,03,9.40
2016,04,09,01,04,9.40
2016,04,09,01,06,9.40
2016,04,09,01,07,9.30
2016,04,09,01,08,9.30
2016,04,09,01,09,9.30
2016,04,09,01,10,9.30
2016,04,09,01,11,9.20
2016,04,09,01,12,9.20
2016,04,09,01,13,9.20
2016,04,09,01,14,9.20
2016,04,09,01,15,9.20
2016,04,09,01,16,9.20
2016,04,09,01,17,9.20
2016,04,09,01,18,9.20
2016,04,09,01,19,9.20
2016,04,09,01,20,9.20
2016,04,09,01,21,9.20
2016,04,09,01,22,9.20
2016,04,09,01,23,9.10
2016,04,09,01,24,9.10
2016,04,09,01,25,9.10
2016,04,09,01,26,9.10
2016,04,09,01,27,9.10
2016,04,09,01,28,9.10
2016,04,09,01,29,9.10
2016,04,09,01,30,9.10
2016,04,09,01,31,9.10
2016,04,09,01,32,9.10
2016,04,09,01,33,9.10
2016,04,09,01,34,9.10
2016,04,09,01,35,9.10
2016,04,09,01,36,9.10
2016,04,09,01,37,9.10
2016,04,09,01,38,9.10
2016,04,09,01,39,9.10
2016,04,09,01,40,9.20
2016,04,09,01,41,9.20
2016,04,09,01,42,9.20
2016,04,09,01,43,9.20
2016,04,09,01,44,9.20
2016,04,09,01,45,9.20
2016,04,09,01,46,9.20
2016,04,09,01,47,9.30
2016,04,09,01,48,9.30
2016,04,09,01,49,9.30
2016,04,09,01,50,9.30
2016,04,09,01,51,9.30
2016,04,09,01,52,9.30
2016,04,09,01,53,9.30
2016,04,09,01,54,9.30
2016,04,09,01,55,9.30
2016,04,09,01,56,9.30
2016,04,09,01,57,9.30
2016,04,09,01,58,9.30
2016,04,09,01,59,9.30
2016,04,09,02,00,9.30
2016,04,09,02,01,9.30
2016,04,09,02,02,9.30
2016,04,09,02,03,9.40
2016,04,09,02,04,9.40
2016,04,09,02,05,9.40
2016,04,09,02,06,9.40
2016,04,09,02,07,9.40
2016,04,09,02,08,9.40
2016,04,09,02,09,9.40
2016,04,09,02,10,9.40
2016,04,09,02,11,9.40
2016,04,09,02,12,9.40
2016,04,09,02,13,9.40
2016,04,09,02,14,9.40
2016,04,09,02,15,9.40
2016,04,09,02,16,9.40
2016,04,09,02,17,9.40
2016,04,09,02,18,9.40
2016,04,09,02,19,9.40
2016,04,09,02,20,9.40
2016,04,09,02,21,9.40
2016,04,09,02,22,9.40
2016,04,09,02,23,9.40
2016,04,09,02,24,9.40
2016,04,09,02,25,9.40
2016,04,09,02,26,9.40
2016,04,09,02,27,9.40
2016,04,09,02,28,9.40
2016,04,09,02,29,9.40
2016,04,09,02,30,9.40
2016,04,09,02,31,9.40
2016,04,09,02,32,9.50
2016,04,09,02,33,9.50
2016,04,09,02,34,9.50
2016,04,09,02,35,9.50
2016,04,09,02,37,9.50
2016,04,09,02,39,9.50
2016,04,09,02,41,9.50
2016,04,09,02,42,9.50
2016,04,09,02,43,9.50
2016,04,09,02,44,9.50
2016,04,09,02,46,9.50
2016,04,09,02,47,9.60
2016,04,09,02,48,9.60
2016,04,09,02,49,9.60
2016,04,09,02,51,9.60
2016,04,09,02,52,9.60
2016,04,09,02,53,9.60
2016,04,09,02,54,9.60
2016,04,09,02,56,9.60
2016,04,09,02,57,9.60
2016,04,09,02,58,9.60
2016,04,09,02,59,9.60
2016,04,09,03,01,9.60
2016,04,09,03,02,9.60
2016,04,09,03,03,9.60
2016,04,09,03,04,9.60
2016,04,09,03,06,9.60
2016,04,09,03,07,9.60
2016,04,09,03,08,9.60
2016,04,09,03,09,9.60
2016,04,09,03,11,9.60
2016,04,09,03,12,9.60
2016,04,09,03,13,9.60
2016,04,09,03,14,9.60
2016,04,09,03,16,9.50
2016,04,09,03,17,9.50
2016,04,09,03,18,9.50
2016,04,09,03,19,9.50
2016,04,09,03,21,9.50
2016,04,09,03,22,9.50
2016,04,09,03,23,9.50
2016,04,09,03,24,9.50
2016,04,09,03,26,9.50
2016,04,09,03,27,9.50
2016,04,09,03,28,9.50
2016,04,09,03,29,9.50
2016,04,09,03,31,9.50
2016,04,09,03,32,9.50
2016,04,09,03,33,9.40
2016,04,09,03,34,9.40
2016,04,09,03,36,9.40
2016,04,09,03,37,9.40
2016,04,09,03,38,9.40
2016,04,09,03,39,9.40
2016,04,09,03,41,9.30
2016,04,09,03,42,9.30
2016,04,09,03,43,9.30
2016,04,09,03,44,9.30
2016,04,09,03,46,9.30
2016,04,09,03,47,9.30
2016,04,09,03,48,9.20
2016,04,09,03,49,9.20
2016,04,09,03,51,9.20
2016,04,09,03,52,9.20
2016,04,09,03,53,9.20
2016,04,09,03,54,9.20
2016,04,09,03,55,9.20
2016,04,09,03,56,9.10
2016,04,09,03,57,9.10
2016,04,09,03,58,9.00
2016,04,09,03,59,9.00
2016,04,09,04,00,8.90
2016,04,09,04,01,8.90
2016,04,09,04,02,8.80
2016,04,09,04,03,8.80
2016,04,09,04,04,8.80
2016,04,09,04,06,8.70
2016,04,09,04,07,8.70
2016,04,09,04,08,8.70
2016,04,09,04,09,8.80
2016,04,09,04,10,8.80
2016,04,09,04,11,8.80
2016,04,09,04,12,8.80
2016,04,09,04,13,8.90
2016,04,09,04,14,8.90
2016,04,09,04,15,8.90
2016,04,09,04,16,8.90
2016,04,09,04,17,8.90
2016,04,09,04,18,8.90
2016,04,09,04,19,8.90
2016,04,09,04,20,8.90
2016,04,09,04,21,8.90
2016,04,09,04,22,8.90
2016,04,09,04,23,8.90
2016,04,09,04,24,8.90
2016,04,09,04,25,8.90
2016,04,09,04,26,8.90
2016,04,09,04,27,8.90
2016,04,09,04,28,8.90
2016,04,09,04,29,8.90
2016,04,09,04,30,8.80
2016,04,09,04,31,8.80
2016,04,09,04,32,8.80
2016,04,09,04,33,8.80
2016,04,09,04,34,8.80
2016,04,09,04,35,8.80
2016,04,09,04,36,8.80
2016,04,09,04,37,8.80
2016,04,09,04,38,8.80
2016,04,09,04,39,8.80
2016,04,09,04,40,8.80
2016,04,09,04,41,8.80
2016,04,09,04,42,8.80
2016,04,09,04,43,8.80
2016,04,09,04,44,8.90
2016,04,09,04,45,8.90
2016,04,09,04,46,8.90
2016,04,09,04,47,8.90
2016,04,09,04,48,8.90
2016,04,09,04,49,8.90
2016,04,09,04,50,9.00
2016,04,09,04,51,9.00
2016,04,09,04,52,8.90
2016,04,09,04,53,8.90
2016,04,09,04,54,8.90
2016,04,09,04,55,8.80
2016,04,09,04,56,8.80
2016,04,09,04,57,8.70
2016,04,09,04,58,8.70
2016,04,09,04,59,8.70
2016,04,09,05,00,8.70
2016,04,09,05,01,8.70
2016,04,09,05,02,8.60
2016,04,09,05,03,8.60
2016,04,09,05,04,8.50
2016,04,09,05,05,8.50
2016,04,09,05,06,8.40
2016,04,09,05,07,8.40
2016,04,09,05,08,8.30
2016,04,09,05,09,8.30
2016,04,09,05,10,8.30
2016,04,09,05,11,8.20
2016,04,09,05,12,8.20
2016,04,09,05,13,8.20
2016,04,09,05,14,8.20
2016,04,09,05,15,8.20
2016,04,09,05,16,8.20
2016,04,09,05,17,8.20
2016,04,09,05,18,8.20
2016,04,09,05,19,8.20
2016,04,09,05,20,8.20
2016,04,09,05,22,8.10
2016,04,09,05,23,8.10
2016,04,09,05,24,8.10
2016,04,09,05,26,8.10
2016,04,09,05,27,8.10
2016,04,09,05,28,8.10
2016,04,09,05,29,8.10
2016,04,09,05,31,8.20
2016,04,09,05,32,8.20
2016,04,09,05,33,8.20
2016,04,09,05,34,8.20
2016,04,09,05,36,8.20
2016,04,09,05,37,8.20
2016,04,09,05,38,8.20
2016,04,09,05,39,8.20
2016,04,09,05,41,8.20
2016,04,09,05,42,8.20
2016,04,09,05,43,8.20
2016,04,09,05,44,8.30
2016,04,09,05,46,8.30
2016,04,09,05,47,8.30
2016,04,09,05,48,8.30
2016,04,09,05,49,8.30
2016,04,09,05,51,8.30
2016,04,09,05,52,8.20
2016,04,09,05,53,8.20
2016,04,09,05,54,8.20
2016,04,09,05,56,8.20
2016,04,09,05,57,8.20
2016,04,09,05,58,8.20
2016,04,09,05,59,8.10
2016,04,09,06,01,8.10
2016,04,09,06,02,8.10
2016,04,09,06,03,8.00
2016,04,09,06,04,8.00
2016,04,09,06,06,8.00
2016,04,09,06,07,7.90
2016,04,09,06,08,7.90
2016,04,09,06,09,7.90
2016,04,09,06,11,7.90
2016,04,09,06,12,7.90
2016,04,09,06,13,7.90
2016,04,09,06,14,7.90
2016,04,09,06,16,7.90
2016,04,09,06,17,7.90
2016,04,09,06,18,7.90
2016,04,09,06,19,7.90
2016,04,09,06,21,7.80
2016,04,09,06,22,7.80
2016,04,09,06,23,7.80
2016,04,09,06,24,7.80
2016,04,09,06,25,7.80
2016,04,09,06,26,7.80
2016,04,09,06,27,7.80
2016,04,09,06,28,7.80
2016,04,09,06,29,7.80
2016,04,09,06,30,7.80
2016,04,09,06,31,7.80
2016,04,09,06,32,7.80
2016,04,09,06,33,7.80
2016,04,09,06,34,7.80
2016,04,09,06,35,7.70
2016,04,09,06,36,7.70
2016,04,09,06,37,7.70
2016,04,09,06,38,7.70
2016,04,09,06,39,7.70
2016,04,09,06,40,7.70
2016,04,09,06,41,7.70
2016,04,09,06,42,7.70
2016,04,09,06,43,7.70
2016,04,09,06,44,7.70
2016,04,09,06,45,7.70
2016,04,09,06,46,7.70
2016,04,09,06,47,7.70
2016,04,09,06,48,7.70
2016,04,09,06,49,7.70
2016,04,09,06,50,7.70
2016,04,09,06,51,7.70
2016,04,09,06,52,7.70
2016,04,09,06,53,7.70
2016,04,09,06,54,7.70
2016,04,09,06,55,7.60
2016,04,09,06,56,7.60
2016,04,09,06,57,7.60
2016,04,09,06,58,7.60
2016,04,09,06,59,7.60
2016,04,09,07,00,7.60
2016,04,09,07,01,7.60
2016,04,09,07,02,7.60
2016,04,09,07,03,7.60
2016,04,09,07,04,7.60
2016,04,09,07,05,7.60
2016,04,09,07,06,7.60
2016,04,09,07,07,7.60
2016,04,09,07,08,7.60
2016,04,09,07,09,7.60
2016,04,09,07,10,7.60
2016,04,09,07,11,7.60
2016,04,09,07,12,7.60
2016,04,09,07,13,7.60
2016,04,09,07,14,7.60
2016,04,09,07,15,7.60
2016,04,09,07,16,7.60
2016,04,09,07,17,7.60
2016,04,09,07,18,7.60
2016,04,09,07,19,7.60
2016,04,09,07,20,7.60
2016,04,09,07,21,7.60
2016,04,09,07,22,7.60
2016,04,09,07,23,7.70
2016,04,09,07,24,7.70
2016,04,09,07,25,7.70
2016,04,09,07,26,7.70
2016,04,09,07,27,7.70
2016,04,09,07,28,7.70
2016,04,09,07,29,7.70
2016,04,09,07,30,7.70
2016,04,09,07,31,7.70
2016,04,09,07,32,7.70
2016,04,09,07,33,7.70
2016,04,09,07,34,7.70
2016,04,09,07,35,7.70
2016,04,09,07,36,7.70
2016,04,09,07,37,7.70
2016,04,09,07,38,7.70
2016,04,09,07,39,7.70
2016,04,09,07,40,7.70
2016,04,09,07,41,7.70
2016,04,09,07,42,7.70
2016,04,09,07,43,7.70
2016,04,09,07,44,7.80
2016,04,09,07,45,7.80
2016,04,09,07,46,7.80
2016,04,09,07,47,7.80
2016,04,09,07,48,7.80
2016,04,09,07,49,7.70
2016,04,09,07,50,7.70
2016,04,09,07,51,7.70
2016,04,09,07,52,7.70
2016,04,09,07,53,7.70
2016,04,09,07,54,7.70
2016,04,09,07,55,7.70
2016,04,09,07,56,7.70
2016,04,09,07,57,7.70
2016,04,09,07,58,7.70
2016,04,09,07,59,7.70
2016,04,09,08,00,7.70
2016,04,09,08,01,7.70
2016,04,09,08,03,7.70
2016,04,09,08,04,7.70
2016,04,09,08,06,7.70
2016,04,09,08,07,7.70
2016,04,09,08,08,7.80
2016,04,09,08,09,7.80
2016,04,09,08,11,7.80
2016,04,09,08,12,7.80
2016,04,09,08,13,7.80
2016,04,09,08,14,7.90
2016,04,09,08,16,7.90
2016,04,09,08,17,8.00
2016,04,09,08,18,8.00
2016,04,09,08,19,8.00
2016,04,09,08,21,8.00
2016,04,09,08,22,8.00
2016,04,09,08,23,8.00
2016,04,09,08,24,8.00
2016,04,09,08,26,8.10
2016,04,09,08,27,8.10
2016,04,09,08,28,8.10
2016,04,09,08,29,8.20
2016,04,09,08,31,8.20
2016,04,09,08,32,8.30
2016,04,09,08,33,8.30
2016,04,09,08,34,8.30
2016,04,09,08,36,8.40
2016,04,09,08,37,8.50
2016,04,09,08,38,8.50
2016,04,09,08,39,8.50
2016,04,09,08,41,8.30
2016,04,09,08,42,8.30
2016,04,09,08,43,8.20
2016,04,09,08,44,8.20
2016,04,09,08,46,8.10
2016,04,09,08,47,8.00
2016,04,09,08,48,8.00
2016,04,09,08,49,8.00
2016,04,09,08,51,7.90
2016,04,09,08,52,7.90
2016,04,09,08,53,7.90
2016,04,09,08,54,7.90
2016,04,09,08,56,8.00
2016,04,09,08,57,8.00
2016,04,09,08,58,8.00
2016,04,09,08,59,8.00
2016,04,09,09,01,8.10
2016,04,09,09,02,8.10
2016,04,09,09,03,8.10
2016,04,09,09,04,8.10
2016,04,09,09,06,8.20
2016,04,09,09,07,8.20
2016,04,09,09,08,8.20
2016,04,09,09,09,8.10
2016,04,09,09,11,8.10
2016,04,09,09,12,8.10
2016,04,09,09,13,8.10
2016,04,09,09,14,8.10
2016,04,09,09,16,8.20
2016,04,09,09,17,8.20
2016,04,09,09,18,8.20
2016,04,09,09,19,8.20
2016,04,09,09,21,8.20
2016,04,09,09,22,8.20
2016,04,09,09,23,8.20
2016,04,09,09,24,8.20
2016,04,09,09,25,8.20
2016,04,09,09,26,8.20
2016,04,09,09,27,8.20
2016,04,09,09,28,8.20
2016,04,09,09,29,8.20
2016,04,09,09,30,8.20
2016,04,09,09,31,8.20
2016,04,09,09,32,8.20
2016,04,09,09,33,8.20
2016,04,09,09,34,8.20
2016,04,09,09,35,8.30
2016,04,09,09,36,8.30
2016,04,09,09,37,8.30
2016,04,09,09,38,8.20
2016,04,09,09,39,8.20
2016,04,09,09,40,8.20
2016,04,09,09,41,8.30
2016,04,09,09,42,8.30
2016,04,09,09,43,8.20
2016,04,09,09,44,8.20
2016,04,09,09,45,8.20
2016,04,09,09,46,8.20
2016,04,09,09,47,8.20
2016,04,09,09,48,8.30
2016,04,09,09,49,8.30
2016,04,09,09,50,8.30
2016,04,09,09,51,8.40
2016,04,09,09,52,8.40
2016,04,09,09,53,8.40
2016,04,09,09,54,8.40
2016,04,09,09,55,8.40
2016,04,09,09,56,8.40
2016,04,09,09,57,8.50
2016,04,09,09,58,8.50
2016,04,09,09,59,8.60
2016,04,09,10,00,8.60
2016,04,09,10,01,8.60
2016,04,09,10,02,8.70
2016,04,09,10,03,8.70
2016,04,09,10,04,8.70
2016,04,09,10,05,8.70
2016,04,09,10,06,8.70
2016,04,09,10,07,8.70
2016,04,09,10,08,8.70
2016,04,09,10,09,8.70
2016,04,09,10,10,8.70
2016,04,09,10,11,8.70
2016,04,09,10,12,8.80
2016,04,09,10,13,8.80
2016,04,09,10,14,8.90
2016,04,09,10,15,8.90
2016,04,09,10,16,9.00
2016,04,09,10,17,9.10
2016,04,09,10,18,9.20
2016,04,09,10,19,9.20
2016,04,09,10,20,9.20
2016,04,09,10,21,9.20
2016,04,09,10,22,9.20
2016,04,09,10,23,9.30
2016,04,09,10,24,9.30
2016,04,09,10,25,9.40
2016,04,09,10,26,9.40
2016,04,09,10,27,9.40
2016,04,09,10,28,9.40
2016,04,09,10,29,9.40
2016,04,09,10,30,9.50
2016,04,09,10,31,9.50
2016,04,09,10,32,9.60
2016,04,09,10,33,9.60
2016,04,09,10,34,9.70
2016,04,09,10,35,9.70
2016,04,09,10,36,9.70
2016,04,09,10,37,9.70
2016,04,09,10,38,9.70
2016,04,09,10,39,9.70
2016,04,09,10,40,9.70
2016,04,09,10,41,9.80
2016,04,09,10,42,9.80
2016,04,09,10,43,9.80
2016,04,09,10,44,9.80
2016,04,09,10,45,9.80
2016,04,09,10,46,9.80
2016,04,09,10,47,9.80
2016,04,09,10,48,9.90
2016,04,09,10,49,9.90
2016,04,09,10,50,10.10
2016,04,09,10,51,10.10
2016,04,09,10,53,10.20
2016,04,09,10,54,10.40
2016,04,09,10,56,10.40
2016,04,09,10,57,10.60
2016,04,09,10,58,10.60
2016,04,09,10,59,10.60
2016,04,09,11,01,10.70
2016,04,09,11,02,10.70
2016,04,09,11,03,10.70
2016,04,09,11,04,10.70
2016,04,09,11,06,10.80
2016,04,09,11,07,10.80
2016,04,09,11,08,10.90
2016,04,09,11,09,10.90
2016,04,09,11,11,10.90
2016,04,09,11,12,10.90
2016,04,09,11,13,11.10
2016,04,09,11,14,11.10
2016,04,09,11,16,11.20
2016,04,09,11,17,11.30
2016,04,09,11,18,11.40
2016,04,09,11,19,11.40
2016,04,09,11,21,11.30
2016,04,09,11,22,11.30
2016,04,09,11,23,11.30
2016,04,09,11,24,11.30
2016,04,09,11,26,11.20
2016,04,09,11,27,11.20
2016,04,09,11,28,11.20
2016,04,09,11,29,11.20
2016,04,09,11,31,11.30
2016,04,09,11,32,11.30
2016,04,09,11,33,11.30
2016,04,09,11,34,11.30
2016,04,09,11,36,11.30
2016,04,09,11,37,11.30
2016,04,09,11,38,11.30
2016,04,09,11,39,11.40
2016,04,09,11,41,11.40
2016,04,09,11,42,11.40
2016,04,09,11,43,11.40
2016,04,09,11,44,11.60
2016,04,09,11,46,11.60
2016,04,09,11,47,11.60
2016,04,09,11,48,11.60
2016,04,09,11,49,11.60
2016,04,09,11,51,11.70
2016,04,09,11,52,11.80
2016,04,09,11,53,11.80
2016,04,09,11,54,11.80
2016,04,09,11,56,12.00
2016,04,09,11,57,12.10
2016,04,09,11,58,12.10
2016,04,09,11,59,12.20
2016,04,09,12,01,12.30
2016,04,09,12,02,12.40
2016,04,09,12,03,12.50
2016,04,09,12,04,12.60
2016,04,09,12,06,12.70
2016,04,09,12,07,12.80
2016,04,09,12,08,12.80
2016,04,09,12,09,12.80
2016,04,09,12,10,12.80
2016,04,09,12,11,12.80
2016,04,09,12,12,12.90
2016,04,09,12,13,12.90
2016,04,09,12,14,12.90
2016,04,09,12,15,12.90
2016,04,09,12,16,12.90
2016,04,09,12,17,12.90
2016,04,09,12,18,12.90
2016,04,09,12,19,12.80
2016,04,09,12,20,12.80
2016,04,09,12,21,12.80
2016,04,09,12,22,12.80
2016,04,09,12,23,12.70
2016,04,09,12,24,12.70
2016,04,09,12,25,12.70
2016,04,09,12,26,12.60
2016,04,09,12,27,12.60
2016,04,09,12,28,12.60
2016,04,09,12,29,12.60
2016,04,09,12,30,12.50
2016,04,09,12,31,12.50
2016,04,09,12,32,12.50
2016,04,09,12,33,12.50
2016,04,09,12,34,12.60
2016,04,09,12,35,12.60
2016,04,09,12,36,12.50
2016,04,09,12,37,12.50
2016,04,09,12,38,12.40
2016,04,09,12,39,12.30
2016,04,09,12,40,12.30
2016,04,09,12,41,12.30
2016,04,09,12,42,12.20
2016,04,09,12,43,12.20
2016,04,09,12,44,12.20
2016,04,09,12,45,12.20
2016,04,09,12,46,12.10
2016,04,09,12,47,12.10
2016,04,09,12,48,12.10
2016,04,09,12,49,12.10
2016,04,09,12,50,12.10
2016,04,09,12,51,12.00
2016,04,09,12,52,12.00
2016,04,09,12,53,12.00
2016,04,09,12,54,11.90
2016,04,09,12,55,11.90
2016,04,09,12,56,11.90
2016,04,09,12,57,11.90
2016,04,09,12,58,11.90
2016,04,09,12,59,11.90
2016,04,09,13,00,11.90
2016,04,09,13,01,11.90
2016,04,09,13,02,12.00
2016,04,09,13,03,12.10
2016,04,09,13,04,12.10
2016,04,09,13,05,12.10
2016,04,09,13,06,12.10
2016,04,09,13,07,12.00
2016,04,09,13,08,12.00
2016,04,09,13,09,12.00
2016,04,09,13,10,12.00
2016,04,09,13,11,12.00
2016,04,09,13,12,12.00
2016,04,09,13,13,12.10
2016,04,09,13,14,12.10
2016,04,09,13,15,12.20
2016,04,09,13,16,12.30
2016,04,09,13,17,12.30
2016,04,09,13,18,12.30
2016,04,09,13,19,12.30
2016,04,09,13,20,12.30
2016,04,09,13,21,12.30
2016,04,09,13,22,12.30
2016,04,09,13,23,12.20
2016,04,09,13,24,12.20
2016,04,09,13,25,12.10
2016,04,09,13,26,12.00
2016,04,09,13,27,11.90
2016,04,09,13,28,11.80
2016,04,09,13,29,11.80
2016,04,09,13,30,11.80
2016,04,09,13,31,11.80
2016,04,09,13,32,11.80
2016,04,09,13,33,11.80
2016,04,09,13,34,11.90
2016,04,09,13,35,12.00
2016,04,09,13,36,12.00
2016,04,09,13,37,12.10
2016,04,09,13,38,12.20
2016,04,09,13,39,12.20
2016,04,09,13,40,12.20
2016,04,09,13,41,12.20
2016,04,09,13,43,12.10
2016,04,09,13,44,12.10
2016,04,09,13,46,12.00
2016,04,09,13,47,12.00
2016,04,09,13,48,12.00
2016,04,09,13,49,12.00
2016,04,09,13,51,11.90
2016,04,09,13,52,11.90
2016,04,09,13,53,11.80
2016,04,09,13,54,11.80
2016,04,09,13,56,11.80
2016,04,09,13,57,11.80
2016,04,09,13,58,11.80
2016,04,09,13,59,11.80
2016,04,09,14,01,11.90
2016,04,09,14,02,12.00
2016,04,09,14,03,12.10
2016,04,09,14,04,12.30
2016,04,09,14,06,12.50
2016,04,09,14,07,12.60
2016,04,09,14,08,12.80
2016,04,09,14,09,12.80
2016,04,09,14,11,12.90
2016,04,09,14,12,12.90
2016,04,09,14,13,13.00
2016,04,09,14,14,12.90
2016,04,09,14,16,12.80
2016,04,09,14,17,12.80
2016,04,09,14,18,12.80
2016,04,09,14,19,12.70
2016,04,09,14,21,12.70
2016,04,09,14,22,12.70
2016,04,09,14,23,12.80
2016,04,09,14,24,12.80
2016,04,09,14,26,12.80
2016,04,09,14,27,12.80
2016,04,09,14,28,12.80
2016,04,09,14,29,12.80
2016,04,09,14,31,13.10
2016,04,09,14,32,13.10
2016,04,09,14,33,13.20
2016,04,09,14,34,13.20
2016,04,09,14,36,13.30
2016,04,09,14,37,13.40
2016,04,09,14,38,13.50
2016,04,09,14,39,13.60
2016,04,09,14,41,13.80
2016,04,09,14,42,14.00
2016,04,09,14,43,14.00
2016,04,09,14,44,14.10
2016,04,09,14,46,14.20
2016,04,09,14,47,14.20
2016,04,09,14,48,14.20
2016,04,09,14,49,14.20
2016,04,09,14,51,14.20
2016,04,09,14,52,14.20
2016,04,09,14,53,14.20
2016,04,09,14,54,14.10
2016,04,09,14,56,14.00
2016,04,09,14,57,14.00
2016,04,09,14,58,13.90
2016,04,09,14,59,13.90
2016,04,09,15,00,13.90
2016,04,09,15,01,13.80
2016,04,09,15,02,13.80
2016,04,09,15,03,13.80
2016,04,09,15,04,13.90
2016,04,09,15,06,13.80
2016,04,09,15,07,13.80
2016,04,09,15,08,13.70
2016,04,09,15,09,13.70
2016,04,09,15,10,13.70
2016,04,09,15,11,13.70
2016,04,09,15,12,13.70
2016,04,09,15,13,13.70
2016,04,09,15,14,13.70
2016,04,09,15,15,13.70
2016,04,09,15,16,13.60
2016,04,09,15,17,13.50
2016,04,09,15,18,13.50
2016,04,09,15,19,13.50
2016,04,09,15,20,13.50
2016,04,09,15,21,13.50
2016,04,09,15,22,13.50
2016,04,09,15,23,13.50
2016,04,09,15,24,13.50
2016,04,09,15,25,13.50
2016,04,09,15,26,13.40
2016,04,09,15,27,13.40
2016,04,09,15,28,13.30
2016,04,09,15,29,13.30
2016,04,09,15,30,13.30
2016,04,09,15,31,13.30
2016,04,09,15,32,13.40
2016,04,09,15,33,13.40
2016,04,09,15,34,13.50
2016,04,09,15,35,13.50
2016,04,09,15,36,13.60
2016,04,09,15,37,13.70
2016,04,09,15,38,13.70
2016,04,09,15,39,13.70
2016,04,09,15,40,13.80
2016,04,09,15,41,13.80
2016,04,09,15,42,13.90
2016,04,09,15,43,13.90
2016,04,09,15,44,13.90
2016,04,09,15,45,14.00
2016,04,09,15,46,14.10
2016,04,09,15,47,14.10
2016,04,09,15,48,14.10
2016,04,09,15,49,14.10
2016,04,09,15,50,14.20
2016,04,09,15,51,14.20
2016,04,09,15,52,14.20
2016,04,09,15,53,14.20
2016,04,09,15,54,14.20
2016,04,09,15,55,14.20
2016,04,09,15,56,14.20
2016,04,09,15,57,14.20
2016,04,09,15,58,14.20
2016,04,09,15,59,14.20
2016,04,09,16,00,14.20
2016,04,09,16,01,14.20
2016,04,09,16,02,14.20
2016,04,09,16,03,14.20
2016,04,09,16,04,14.20
2016,04,09,16,05,14.30
2016,04,09,16,06,14.30
2016,04,09,16,07,14.30
2016,04,09,16,08,14.30
2016,04,09,16,09,14.30
2016,04,09,16,10,14.40
2016,04,09,16,11,14.40
2016,04,09,16,12,14.50
2016,04,09,16,13,14.60
2016,04,09,16,14,14.60
2016,04,09,16,15,14.70
2016,04,09,16,16,14.70
2016,04,09,16,17,14.80
2016,04,09,16,18,14.80
2016,04,09,16,19,14.80
2016,04,09,16,20,14.80
2016,04,09,16,21,14.80
2016,04,09,16,22,14.90
2016,04,09,16,23,14.80
2016,04,09,16,24,14.80
2016,04,09,16,25,14.80
2016,04,09,16,26,14.70
2016,04,09,16,27,14.70
2016,04,09,16,28,14.70
2016,04,09,16,29,14.60
2016,04,09,16,31,14.60
2016,04,09,16,32,14.50
2016,04,09,16,33,14.50
2016,04,09,16,34,14.50
2016,04,09,16,36,14.60
2016,04,09,16,37,14.60
2016,04,09,16,38,14.60
2016,04,09,16,39,14.70
2016,04,09,16,41,14.80
2016,04,09,16,42,14.80
2016,04,09,16,43,14.80
2016,04,09,16,44,14.80
2016,04,09,16,46,14.90
2016,04,09,16,47,14.90
2016,04,09,16,48,14.90
2016,04,09,16,49,14.90
2016,04,09,16,51,14.90
2016,04,09,16,52,14.90
2016,04,09,16,53,14.90
2016,04,09,16,54,14.90
2016,04,09,16,56,15.00
2016,04,09,16,57,15.10
2016,04,09,16,58,15.10
2016,04,09,16,59,15.20
2016,04,09,17,01,15.30
2016,04,09,17,02,15.30
2016,04,09,17,03,15.30
2016,04,09,17,04,15.30
2016,04,09,17,06,15.30
2016,04,09,17,07,15.40
2016,04,09,17,08,15.40
2016,04,09,17,09,15.40
2016,04,09,17,11,15.40
2016,04,09,17,12,15.50
2016,04,09,17,13,15.60
2016,04,09,17,14,15.60
2016,04,09,17,16,15.70
2016,04,09,17,17,15.80
2016,04,09,17,18,15.80
2016,04,09,17,19,15.80
2016,04,09,17,21,15.80
2016,04,09,17,22,15.80
2016,04,09,17,23,15.80
2016,04,09,17,24,15.80
2016,04,09,17,26,15.70
2016,04,09,17,27,15.70
2016,04,09,17,28,15.60
2016,04,09,17,29,15.60
2016,04,09,17,31,15.60
2016,04,09,17,32,15.60
2016,04,09,17,33,15.60
2016,04,09,17,34,15.60
2016,04,09,17,36,15.60
2016,04,09,17,37,15.60
2016,04,09,17,38,15.70
2016,04,09,17,39,15.70
2016,04,09,17,41,15.60
2016,04,09,17,42,15.60
2016,04,09,17,43,15.50
2016,04,09,17,44,15.50
2016,04,09,17,45,15.50
2016,04,09,17,46,15.50
2016,04,09,17,47,15.60
2016,04,09,17,48,15.60
2016,04,09,17,49,15.60
2016,04,09,17,50,15.50
2016,04,09,17,51,15.50
2016,04,09,17,52,15.50
2016,04,09,17,53,15.50
2016,04,09,17,54,15.50
2016,04,09,17,55,15.50
2016,04,09,17,56,15.40
2016,04,09,17,57,15.40
2016,04,09,17,58,15.50
2016,04,09,17,59,15.50
2016,04,09,18,00,15.50
2016,04,09,18,01,15.50
2016,04,09,18,02,15.40
2016,04,09,18,03,15.40
2016,04,09,18,04,15.40
2016,04,09,18,05,15.30
2016,04,09,18,06,15.30
2016,04,09,18,07,15.30
2016,04,09,18,08,15.20
2016,04,09,18,09,15.20
2016,04,09,18,10,15.20
2016,04,09,18,11,15.20
2016,04,09,18,12,15.20
2016,04,09,18,13,15.20
2016,04,09,18,14,15.10
2016,04,09,18,15,15.10
2016,04,09,18,16,15.10
2016,04,09,18,17,15.00
2016,04,09,18,18,15.00
2016,04,09,18,19,14.90
2016,04,09,18,20,14.90
2016,04,09,18,21,14.90
2016,04,09,18,22,14.80
2016,04,09,18,23,14.80
2016,04,09,18,24,14.80
2016,04,09,18,25,14.80
2016,04,09,18,26,14.70
2016,04,09,18,27,14.70
2016,04,09,18,28,14.60
2016,04,09,18,29,14.60
2016,04,09,18,30,14.60
2016,04,09,18,31,14.60
2016,04,09,18,32,14.60
2016,04,09,18,33,14.60
2016,04,09,18,34,14.60
2016,04,09,18,35,14.60
2016,04,09,18,36,14.60
2016,04,09,18,37,14.60
2016,04,09,18,38,14.70
2016,04,09,18,39,14.70
2016,04,09,18,40,14.70
2016,04,09,18,41,14.70
2016,04,09,18,42,14.70
2016,04,09,18,43,14.70
2016,04,09,18,44,14.80
2016,04,09,18,45,14.80
2016,04,09,18,46,14.80
2016,04,09,18,47,14.80
2016,04,09,18,48,14.80
2016,04,09,18,49,14.80
2016,04,09,18,50,14.80
2016,04,09,18,51,14.80
2016,04,09,18,52,14.80
2016,04,09,18,53,14.70
2016,04,09,18,54,14.70
2016,04,09,18,55,14.60
2016,04,09,18,56,14.50
2016,04,09,18,57,14.40
2016,04,09,18,58,14.30
2016,04,09,18,59,14.20
2016,04,09,19,00,14.20
2016,04,09,19,01,14.20
2016,04,09,19,02,14.10
2016,04,09,19,03,14.00
2016,04,09,19,04,14.00
2016,04,09,19,05,13.90
2016,04,09,19,06,13.90
2016,04,09,19,07,13.80
2016,04,09,19,08,13.70
2016,04,09,19,09,13.70
2016,04,09,19,10,13.70
2016,04,09,19,11,13.60
2016,04,09,19,12,13.60
2016,04,09,19,13,13.50
2016,04,09,19,14,13.50
2016,04,09,19,15,13.40
2016,04,09,19,16,13.40
2016,04,09,19,18,13.30
2016,04,09,19,19,13.30
2016,04,09,19,21,13.20
2016,04,09,19,22,13.10
2016,04,09,19,23,13.10
2016,04,09,19,24,13.00
2016,04,09,19,26,12.90
2016,04,09,19,27,12.90
2016,04,09,19,28,12.90
2016,04,09,19,29,12.80
2016,04,09,19,31,12.70
2016,04,09,19,32,12.70
2016,04,09,19,33,12.60
2016,04,09,19,34,12.60
2016,04,09,19,36,12.50
2016,04,09,19,37,12.50
2016,04,09,19,38,12.50
2016,04,09,19,39,12.40
2016,04,09,19,41,12.40